TimeEST,TemperatureF,Dew PointF,Humidity,Sea Level PressureIn,VisibilityMPH,Wind Direction,Wind SpeedMPH,Gust SpeedMPH,PrecipitationIn,Events,Conditions,WindDirDegrees,DateUTC
12:54 AM,37.0,27.0,67,30.50,10.0,NNE,3.5,-,N/A,,Clear,20,2013-01-19 05:54:00
1:54 AM,36.0,27.0,70,30.51,10.0,North,4.6,-,N/A,,Clear,360,2013-01-19 06:54:00
2:54 AM,37.0,27.0,67,30.49,10.0,NNE,6.9,-,N/A,,Clear,20,2013-01-19 07:54:00
3:54 AM,37.0,28.0,70,30.48,10.0,North,5.8,-,N/A,,Clear,10,2013-01-19 08:54:00
4:54 AM,35.1,28.9,78,30.47,10.0,NE,4.6,-,N/A,,Clear,50,2013-01-19 09:54:00
5:54 AM,36.0,28.0,73,30.48,10.0,North,3.5,-,N/A,,Clear,360,2013-01-19 10:54:00
6:54 AM,34.0,28.0,79,30.48,10.0,North,3.5,-,N/A,,Clear,10,2013-01-19 11:54:00
7:54 AM,37.0,28.9,73,30.48,8.0,North,5.8,-,N/A,,Partly Cloudy,360,2013-01-19 12:54:00
8:54 AM,43.0,28.0,56,30.48,10.0,NNE,5.8,-,N/A,,Partly Cloudy,20,2013-01-19 13:54:00
9:54 AM,46.9,23.0,39,30.49,10.0,NE,4.6,-,N/A,,Partly Cloudy,40,2013-01-19 14:54:00
10:54 AM,51.1,28.9,43,30.46,10.0,NNE,5.8,-,N/A,,Scattered Clouds,20,2013-01-19 15:54:00
11:54 AM,52.0,32.0,47,30.42,10.0,Calm,Calm,-,N/A,,Scattered Clouds,0,2013-01-19 16:54:00
12:54 PM,55.0,34.0,45,30.37,10.0,Calm,Calm,-,N/A,,Partly Cloudy,0,2013-01-19 17:54:00
1:54 PM,57.0,36.0,45,30.33,10.0,Calm,Calm,-,N/A,,Partly Cloudy,0,2013-01-19 18:54:00
2:54 PM,61.0,39.9,46,30.30,10.0,Calm,Calm,-,N/A,,Partly Cloudy,0,2013-01-19 19:54:00
3:54 PM,60.1,39.9,47,30.28,10.0,Calm,Calm,-,N/A,,Partly Cloudy,0,2013-01-19 20:54:00
4:54 PM,57.0,43.0,59,30.27,10.0,SSE,6.9,-,N/A,,Partly Cloudy,160,2013-01-19 21:54:00
5:54 PM,51.1,43.0,74,30.26,10.0,South,4.6,-,N/A,,Clear,170,2013-01-19 22:54:00
6:54 PM,48.9,42.1,77,30.27,10.0,Calm,Calm,-,N/A,,Clear,0,2013-01-19 23:54:00
7:54 PM,45.0,41.0,86,30.27,10.0,Calm,Calm,-,N/A,,Clear,0,2013-01-20 00:54:00
8:54 PM,42.1,39.0,89,30.25,8.0,Calm,Calm,-,N/A,,Clear,0,2013-01-20 01:54:00
9:54 PM,43.0,39.9,89,30.24,10.0,Calm,Calm,-,N/A,,Clear,0,2013-01-20 02:54:00
10:54 PM,42.1,39.0,89,30.22,10.0,Calm,Calm,-,N/A,,Scattered Clouds,0,2013-01-20 03:54:00
11:54 PM,41.0,37.9,89,30.19,5.0,West,3.5,-,N/A,,Clear,270,2013-01-20 04:54:00